Location: ?????????
(38.0736°N, 23.2119°E)
Time: 06:30:04
(UTC+00:00)

Cosmos 371 Rocket - Visible Passes

Search period start: 13 July 2024 00:00
Search period end: 23 July 2024 00:00
Orbit: 678 x 695 km, 74.0° (Epoch: 12 July)

Date Brightness Start Highest point End Pass type
(mag) Time Alt. Az. Time Alt. Az. Time Alt. Az.
13 Jul 6.8 00:59:38 10° NE 01:00:13 10° NE 01:00:48 10° ENE visible
13 Jul 3.3 02:36:20 10° NNW 02:41:13 88° WSW 02:46:04 10° SSE visible
14 Jul 5.3 01:35:26 10° N 01:39:41 29° ENE 01:43:55 10° SE visible
15 Jul 6.6 00:36:58 10° NE 00:37:43 10° NE 00:38:28 10° ENE visible
15 Jul 3.3 02:13:50 10° NNW 02:18:43 87° WSW 02:23:32 10° SSE visible
16 Jul 5.2 01:12:54 10° N 01:17:11 30° ENE 01:21:25 10° SE visible
17 Jul 6.5 00:14:19 10° NE 00:15:13 10° NE 00:16:06 10° ENE visible
17 Jul 3.2 01:51:19 10° NNW 01:56:12 86° WSW 02:01:01 10° SSE visible
18 Jul 5.1 00:50:23 10° N 00:54:40 30° ENE 00:58:55 10° SE visible
18 Jul 4.3 02:30:50 10° NW 02:34:49 26° W 02:38:46 10° SSW visible
18 Jul 6.3 23:51:42 10° NE 23:52:42 11° NE 23:53:42 10° ENE visible
19 Jul 3.2 01:28:48 10° NNW 01:33:40 85° WSW 01:38:29 10° SSE visible
20 Jul 5.0 00:27:51 10° N 00:32:09 30° ENE 00:36:24 10° SE visible
20 Jul 4.3 02:08:20 10° NW 02:12:17 25° W 02:15:11 15° SW visible
20 Jul 6.2 23:29:04 10° NE 23:30:10 11° NE 23:31:17 10° ENE visible
21 Jul 3.2 01:06:16 10° NNW 01:11:08 84° WSW 01:13:26 32° SSE visible
22 Jul 4.9 00:05:18 10° N 00:09:37 31° ENE 00:11:55 21° ESE visible
22 Jul 4.3 01:45:49 10° NW 01:49:45 25° W 01:50:23 24° WSW visible
22 Jul 6.1 23:06:27 10° NE 23:07:38 11° NE 23:08:50 10° ENE visible
